,,,PA_Meas_PMT16A,,PR_Meas_QMR101_102,,RH_Meas_QMH101,,SR_Meas_QMS101,,TA_Meas_QMH101,,GenWind,,GenWind,
date,time,status,PA,status,PR,status,RH,status,SR,status,TA,status,DirAvg,status,SpdAvg,
2008-03-18, 00:00:04,VALID,1002.28,VALID,0,VALID,94.7507,VALID,0,VALID,25.1072,VALID,39,VALID,0.44375,
2008-03-18, 00:01:04,VALID,1002.28,VALID,0,VALID,94.0183,VALID,0,VALID,25.3214,VALID,65,VALID,0.975391,
2008-03-18, 00:02:04,VALID,1002.32,VALID,0,VALID,93.1563,VALID,0,VALID,25.5162,VALID,27,VALID,0.405469,
2008-03-18, 00:03:04,VALID,1002.33,VALID,0,VALID,92.5078,VALID,0,VALID,25.6155,VALID,27,VALID,0.282422,
2008-03-18, 00:04:04,VALID,1002.35,VALID,0,VALID,91.6991,VALID,0,VALID,25.6525,VALID,29,VALID,0.679297,
2008-03-18, 00:05:04,VALID,1002.4,VALID,0,VALID,90.8371,VALID,0,VALID,25.7519,VALID,358,VALID,0.903906,
2008-03-18, 00:06:04,VALID,1002.44,VALID,0,VALID,90.4175,VALID,0,VALID,25.8473,VALID,22,VALID,0.954297,
2008-03-18, 00:07:04,VALID,1002.47,VALID,0,VALID,89.7385,VALID,0,VALID,25.9447,VALID,22,VALID,0.6625,
2008-03-18, 00:08:04,VALID,1002.46,VALID,0,VALID,89.2503,VALID,0,VALID,25.9856,VALID,46,VALID,0.550781,
2008-03-18, 00:09:04,VALID,1002.45,VALID,0,VALID,88.8307,VALID,0,VALID,26.0226,VALID,27,VALID,1.01523,
2008-03-18, 00:10:04,VALID,1002.42,VALID,0,VALID,88.4721,VALID,0,VALID,26.083,VALID,16,VALID,0.444141,
2008-03-18, 00:11:04,VALID,1002.43,VALID,0,VALID,88.3958,VALID,0,VALID,26.124,VALID,27,VALID,0.862109,
2008-03-18, 00:12:04,VALID,1002.41,VALID,0,VALID,88.3653,VALID,0,VALID,26.122,VALID,70,VALID,0.117969,
2008-03-18, 00:13:04,VALID,1002.38,VALID,0,VALID,88.1975,VALID,0,VALID,26.1005,VALID,46,VALID,0.658203,
2008-03-18, 00:14:04,VALID,1002.34,VALID,0,VALID,87.961,VALID,0,VALID,26.1609,VALID,42,VALID,0.501172,
2008-03-18, 00:15:04,VALID,1002.29,VALID,0,VALID,87.7092,VALID,0,VALID,26.1804,VALID,25,VALID,0.835547,
2008-03-18, 00:16:04,VALID,1002.23,VALID,0,VALID,87.6177,VALID,0,VALID,26.2194,VALID,5,VALID,0.236719,
2008-03-18, 00:17:04,VALID,1002.17,VALID,0,VALID,87.5719,VALID,0,VALID,26.1979,VALID,23,VALID,0.335156,
2008-03-18, 00:18:04,VALID,1002.16,VALID,0,VALID,87.7245,VALID,0,VALID,26.1999,VALID,23,VALID,0.152734,
2008-03-18, 00:19:04,VALID,1002.16,VALID,0,VALID,87.9305,VALID,0,VALID,26.1784,VALID,22,VALID,0.587109,
2008-03-18, 00:20:04,VALID,1002.16,VALID,0,VALID,88.0602,VALID,0,VALID,26.1415,VALID,22,VALID,0.361328,
2008-03-18, 00:21:04,VALID,1002.15,VALID,0,VALID,88.1822,VALID,0,VALID,26.1005,VALID,351,VALID,0.638281,
2008-03-18, 00:22:04,VALID,1002.14,VALID,0,VALID,88.1593,VALID,0,VALID,26.1005,VALID,10,VALID,0.65625,
2008-03-18, 00:23:04,VALID,1002.17,VALID,0,VALID,88.0068,VALID,0,VALID,26.12,VALID,356,VALID,1.15742,
2008-03-18, 00:24:04,VALID,1002.19,VALID,0,VALID,87.6558,VALID,0,VALID,26.1979,VALID,34,VALID,1.16367,
2008-03-18, 00:25:04,VALID,1002.2,VALID,0,VALID,87.5185,VALID,0,VALID,26.2369,VALID,50,VALID,0.342578,
2008-03-18, 00:26:04,VALID,1002.19,VALID,0,VALID,87.4499,VALID,0,VALID,26.2174,VALID,46,VALID,0.209766,
2008-03-18, 00:27:04,VALID,1002.21,VALID,0,VALID,87.2515,VALID,0,VALID,26.2778,VALID,64,VALID,0.563281,
2008-03-18, 00:28:04,VALID,1002.21,VALID,0,VALID,87.3049,VALID,0,VALID,26.2973,VALID,64,VALID,0.00585938,
2008-03-18, 00:29:04,VALID,1002.2,VALID,0,VALID,87.1447,VALID,0,VALID,26.2564,VALID,64,VALID,0.0585938,
2008-03-18, 00:30:04,VALID,1002.18,VALID,0,VALID,87.1523,VALID,0,VALID,26.2759,VALID,273,VALID,0.234766,
2008-03-18, 00:31:04,VALID,1002.16,VALID,0,VALID,87.2515,VALID,0,VALID,26.2973,VALID,273,VALID,0.065625,
2008-03-18, 00:32:04,VALID,1002.16,VALID,0,VALID,87.3812,VALID,0,VALID,26.2973,VALID,273,VALID,0.208594,
2008-03-18, 00:33:04,VALID,1002.12,VALID,0,VALID,87.343,VALID,0,VALID,26.2778,VALID,255,VALID,0.332031,
2008-03-18, 00:34:04,VALID,1002.1,VALID,0,VALID,87.4727,VALID,0,VALID,26.2174,VALID,231,VALID,0.172266,
2008-03-18, 00:35:04,VALID,1002.1,VALID,0,VALID,87.5795,VALID,0,VALID,26.1784,VALID,231,VALID,0.225781,
2008-03-18, 00:36:04,VALID,1002.04,VALID,0,VALID,87.6558,VALID,0,VALID,26.1609,VALID,231,VALID,0.355078,
2008-03-18, 00:37:04,VALID,1001.98,VALID,0,VALID,88.228,VALID,0,VALID,26.1025,VALID,231,VALID,0.586328,
2008-03-18, 00:38:04,VALID,1001.98,VALID,0,VALID,88.8231,VALID,0.100563,VALID,25.9817,VALID,231,VALID,0.271094,
2008-03-18, 00:39:04,VALID,1001.93,VALID,0,VALID,89.441,VALID,0,VALID,25.8843,VALID,231,VALID,0.0976563,
2008-03-18, 00:40:04,VALID,1001.95,VALID,0,VALID,89.6699,VALID,0,VALID,25.7674,VALID,231,VALID,0.0730469,
2008-03-18, 00:41:04,VALID,1001.93,VALID,0,VALID,90.1657,VALID,0.100563,VALID,25.7304,VALID,231,VALID,0.222266,
2008-03-18, 00:42:04,VALID,1001.99,VALID,0,VALID,90.4862,VALID,0.100563,VALID,25.672,VALID,230,VALID,0.156641,
2008-03-18, 00:43:04,VALID,1001.99,VALID,0,VALID,90.776,VALID,0.100563,VALID,25.6136,VALID,230,VALID,0.326562,
2008-03-18, 00:44:04,VALID,1001.98,VALID,0,VALID,91.0125,VALID,0.100563,VALID,25.5532,VALID,231,VALID,0.046875,
2008-03-18, 00:45:05,VALID,1002.02,VALID,0,VALID,91.1651,VALID,0.100563,VALID,25.5162,VALID,231,VALID,0.353906,
2008-03-18, 00:46:05,VALID,1002.01,VALID,0,VALID,91.333,VALID,0.100563,VALID,25.4753,VALID,231,VALID,0.226953,
2008-03-18, 00:47:05,VALID,1002.05,VALID,0,VALID,91.5389,VALID,0,VALID,25.4169,VALID,231,VALID,0.145703,
2008-03-18, 00:48:05,VALID,1002.06,VALID,0,VALID,91.5389,VALID,0.100563,VALID,25.3993,VALID,231,VALID,0.0441406,
2008-03-18, 00:49:05,VALID,1002.06,VALID,0,VALID,91.6229,VALID,0.100563,VALID,25.3409,VALID,231,VALID,0,
2008-03-18, 00:50:05,VALID,1002.02,VALID,0,VALID,91.7907,VALID,0,VALID,25.2806,VALID,231,VALID,0,
2008-03-18, 00:51:05,VALID,1002.01,VALID,0,VALID,92.0882,VALID,0,VALID,25.263,VALID,231,VALID,0.197266,
2008-03-18, 00:52:05,VALID,1002.01,VALID,0,VALID,92.3323,VALID,0.100563,VALID,25.2027,VALID,283,VALID,0.401172,
2008-03-18, 00:53:05,VALID,1002.02,VALID,0,VALID,92.6604,VALID,0,VALID,25.1851,VALID,351,VALID,0.723437,
2008-03-18, 00:54:05,VALID,1002.02,VALID,0,VALID,92.7977,VALID,0,VALID,25.1461,VALID,347,VALID,0.427734,
2008-03-18, 00:55:05,VALID,1002.05,VALID,0,VALID,92.9579,VALID,0,VALID,25.1267,VALID,346,VALID,0.535156,
2008-03-18, 00:56:05,VALID,1002.09,VALID,0,VALID,93.141,VALID,0,VALID,25.1286,VALID,348,VALID,0.582422,
2008-03-18, 00:57:05,VALID,1002.13,VALID,0,VALID,93.2554,VALID,0,VALID,25.0682,VALID,354,VALID,0.402734,
2008-03-18, 00:58:05,VALID,1002.15,VALID,0,VALID,93.347,VALID,0,VALID,25.0507,VALID,354,VALID,0.0625,
2008-03-18, 00:59:05,VALID,1002.1,VALID,0,VALID,93.4309,VALID,0,VALID,25.0098,VALID,354,VALID,0.113672,
2008-03-18, 01:00:05,VALID,1002.16,VALID,0,VALID,93.5606,VALID,0,VALID,25.0117,VALID,353,VALID,0.263281,
2008-03-18, 01:01:05,VALID,1002.14,VALID,0,VALID,93.6369,VALID,0,VALID,24.9904,VALID,353,VALID,0.196484,
2008-03-18, 01:02:05,VALID,1002.06,VALID,0,VALID,93.7666,VALID,0,VALID,24.9904,VALID,353,VALID,0.564062,
2008-03-18, 01:03:05,VALID,1002.01,VALID,0,VALID,93.7513,VALID,0,VALID,24.9922,VALID,353,VALID,0.741406,
2008-03-18, 01:04:05,VALID,1001.91,VALID,0,VALID,93.7742,VALID,0,VALID,24.9709,VALID,350,VALID,0.875,
2008-03-18, 01:05:05,VALID,1001.86,VALID,0,VALID,93.8505,VALID,0,VALID,24.9319,VALID,353,VALID,0.95,
2008-03-18, 01:06:05,VALID,1001.83,VALID,0,VALID,93.942,VALID,0,VALID,24.9125,VALID,351,VALID,1.05938,
2008-03-18, 01:07:05,VALID,1001.81,VALID,0,VALID,94.0641,VALID,0,VALID,24.9125,VALID,350,VALID,0.845312,
2008-03-18, 01:08:05,VALID,1001.8,VALID,0,VALID,94.209,VALID,0,VALID,24.9533,VALID,351,VALID,0.643359,
2008-03-18, 01:09:05,VALID,1001.81,VALID,0,VALID,94.1862,VALID,0,VALID,24.9125,VALID,351,VALID,0.574609,
2008-03-18, 01:10:05,VALID,1001.79,VALID,0,VALID,94.1328,VALID,0,VALID,24.9338,VALID,352,VALID,0.655469,
2008-03-18, 01:11:05,VALID,1001.79,VALID,0,VALID,94.2472,VALID,0,VALID,24.8911,VALID,354,VALID,0.628906,
2008-03-18, 01:12:05,VALID,1001.83,VALID,0,VALID,94.3006,VALID,0,VALID,24.9533,VALID,354,VALID,0.5375,
2008-03-18, 01:13:05,VALID,1001.84,VALID,0,VALID,94.3692,VALID,0,VALID,24.9514,VALID,354,VALID,0.229297,
2008-03-18, 01:14:05,VALID,1001.87,VALID,0,VALID,94.3692,VALID,0,VALID,24.9728,VALID,354,VALID,0.0949219,
2008-03-18, 01:15:05,VALID,1001.92,VALID,0,VALID,94.3616,VALID,0,VALID,24.9514,VALID,354,VALID,0,
2008-03-18, 01:16:05,VALID,1001.95,VALID,0,VALID,94.3387,VALID,0,VALID,24.9709,VALID,354,VALID,0,
2008-03-18, 01:17:05,VALID,1001.99,VALID,0,VALID,94.2777,VALID,0,VALID,24.9728,VALID,354,VALID,0.0542969,
2008-03-18, 01:18:05,VALID,1002,VALID,0,VALID,94.293,VALID,0,VALID,24.9728,VALID,354,VALID,0.204688,
2008-03-18, 01:19:05,VALID,1001.98,VALID,0,VALID,94.2777,VALID,0,VALID,24.9922,VALID,354,VALID,0.314063,
2008-03-18, 01:20:05,VALID,1001.93,VALID,0,VALID,94.2701,VALID,0,VALID,24.9709,VALID,354,VALID,0.15625,
2008-03-18, 01:21:05,VALID,1001.88,VALID,0,VALID,94.3158,VALID,0,VALID,25.0117,VALID,354,VALID,0,
2008-03-18, 01:22:05,VALID,1001.78,VALID,0,VALID,94.3006,VALID,0,VALID,24.9904,VALID,354,VALID,0,
2008-03-18, 01:23:05,VALID,1001.72,VALID,0,VALID,94.3082,VALID,0,VALID,25.0098,VALID,354,VALID,0,
2008-03-18, 01:24:05,VALID,1001.7,VALID,0,VALID,94.3006,VALID,0,VALID,25.0098,VALID,354,VALID,0,
2008-03-18, 01:25:05,VALID,1001.71,VALID,0,VALID,94.4227,VALID,0,VALID,25.0098,VALID,354,VALID,0.234375,
2008-03-18, 01:26:05,VALID,1001.73,VALID,0,VALID,94.4074,VALID,0,VALID,25.0293,VALID,358,VALID,0.333984,
2008-03-18, 01:27:05,VALID,1001.8,VALID,0,VALID,94.3311,VALID,0,VALID,25.0293,VALID,62,VALID,0.721875,
2008-03-18, 01:28:05,VALID,1001.89,VALID,0,VALID,94.2396,VALID,0,VALID,25.0098,VALID,110,VALID,1.25977,
2008-03-18, 01:29:05,VALID,1001.97,VALID,0,VALID,94.3845,VALID,0,VALID,24.9904,VALID,115,VALID,0.96875,
2008-03-18, 01:30:05,VALID,1002.08,VALID,0,VALID,94.56,VALID,0,VALID,24.9904,VALID,125,VALID,1.57227,
2008-03-18, 01:31:05,VALID,1002.19,VALID,0,VALID,94.6286,VALID,0,VALID,25.0312,VALID,152,VALID,2.84766,
2008-03-18, 01:32:05,VALID,1002.14,VALID,0,VALID,93.4156,VALID,0,VALID,24.9514,VALID,165,VALID,2.73242,
2008-03-18, 01:33:05,VALID,1002.22,VALID,0.5,VALID,93.3546,VALID,0,VALID,24.893,VALID,126,VALID,3.10352,
2008-03-18, 01:34:05,VALID,1002.2,VALID,2,VALID,91.9509,VALID,0,VALID,24.5035,VALID,143,VALID,4.15781,
2008-03-18, 01:35:05,VALID,1002.16,VALID,1.5,VALID,92.9121,VALID,0,VALID,24.1123,VALID,155,VALID,2.56172,
2008-03-18, 01:36:05,VALID,1002.12,VALID,1,VALID,93.8429,VALID,0,VALID,23.9195,VALID,155,VALID,2.12812,
2008-03-18, 01:37:05,VALID,1002.08,VALID,1,VALID,94.1175,VALID,0,VALID,23.7053,VALID,147,VALID,3.66641,
2008-03-18, 01:38:05,VALID,1002.06,VALID,0,VALID,94.5447,VALID,0,VALID,23.5496,VALID,173,VALID,3.22734,
2008-03-18, 01:39:05,VALID,1002.01,VALID,0.5,VALID,95.0024,VALID,0,VALID,23.4328,VALID,184,VALID,1.8957,
2008-03-18, 01:40:05,VALID,1001.98,VALID,0,VALID,95.3,VALID,0,VALID,23.3567,VALID,124,VALID,1.53242,
2008-03-18, 01:41:05,VALID,1001.96,VALID,0,VALID,95.7272,VALID,0,VALID,23.3355,VALID,124,VALID,2.21328,
2008-03-18, 01:42:05,VALID,1001.99,VALID,0,VALID,95.8874,VALID,0,VALID,23.3355,VALID,142,VALID,0.923047,
2008-03-18, 01:43:05,VALID,1001.97,VALID,0,VALID,96.0857,VALID,0,VALID,23.3355,VALID,160,VALID,0.71875,
2008-03-18, 01:44:05,VALID,1001.98,VALID,0,VALID,96.2536,VALID,0,VALID,23.3939,VALID,178,VALID,2.13125,
2008-03-18, 01:45:05,VALID,1001.99,VALID,0,VALID,96.3299,VALID,0.402252,VALID,23.4523,VALID,164,VALID,2.44688,
2008-03-18, 01:46:05,VALID,1001.97,VALID,0,VALID,96.3985,VALID,0,VALID,23.4912,VALID,177,VALID,1.82148,
2008-03-18, 01:47:05,VALID,1002,VALID,0,VALID,96.4901,VALID,0,VALID,23.5691,VALID,146,VALID,1.38203,
2008-03-18, 01:48:05,VALID,1001.97,VALID,0.5,VALID,96.4748,VALID,0,VALID,23.6275,VALID,127,VALID,1.62812,
2008-03-18, 01:49:05,VALID,1001.91,VALID,0.5,VALID,96.4901,VALID,0,VALID,23.6664,VALID,135,VALID,0.517578,
2008-03-18, 01:50:05,VALID,1001.88,VALID,0.5,VALID,96.4825,VALID,0,VALID,23.6664,VALID,135,VALID,0.338672,
2008-03-18, 01:51:05,VALID,1001.91,VALID,0,VALID,96.429,VALID,0,VALID,23.6859,VALID,141,VALID,0.450781,
2008-03-18, 01:52:05,VALID,1001.91,VALID,0.5,VALID,96.4901,VALID,0,VALID,23.7071,VALID,123,VALID,0.376953,
2008-03-18, 01:53:05,VALID,1001.85,VALID,0,VALID,96.4901,VALID,0,VALID,23.7266,VALID,12,VALID,1.02773,
2008-03-18, 01:54:05,VALID,1001.84,VALID,0.5,VALID,96.4138,VALID,0,VALID,23.6859,VALID,350,VALID,0.687109,
2008-03-18, 01:55:05,VALID,1001.76,VALID,0,VALID,96.3985,VALID,0,VALID,23.6664,VALID,335,VALID,0.654688,
2008-03-18, 01:56:05,VALID,1001.72,VALID,0,VALID,96.4138,VALID,0,VALID,23.6682,VALID,349,VALID,0.838281,
2008-03-18, 01:57:05,VALID,1001.68,VALID,0,VALID,96.4825,VALID,0,VALID,23.6682,VALID,351,VALID,0.694531,
2008-03-18, 01:58:05,VALID,1001.67,VALID,0,VALID,96.513,VALID,0,VALID,23.6469,VALID,345,VALID,0.671094,
2008-03-18, 01:59:05,VALID,1001.59,VALID,0,VALID,96.5511,VALID,0,VALID,23.6664,VALID,352,VALID,0.887109,
2008-03-18, 02:00:05,VALID,1001.52,VALID,0,VALID,96.5511,VALID,0,VALID,23.6664,VALID,340,VALID,0.513672,
2008-03-18, 02:01:05,VALID,1001.53,VALID,0,VALID,96.5664,VALID,0,VALID,23.6664,VALID,347,VALID,0.909375,
2008-03-18, 02:02:05,VALID,1001.49,VALID,0,VALID,96.635,VALID,0,VALID,23.7053,VALID,343,VALID,0.970703,
2008-03-18, 02:03:05,VALID,1001.43,VALID,0,VALID,96.5969,VALID,0,VALID,23.7053,VALID,339,VALID,1.78477,
2008-03-18, 02:04:05,VALID,1001.39,VALID,0,VALID,96.5587,VALID,0,VALID,23.7053,VALID,352,VALID,1.89766,
2008-03-18, 02:05:05,VALID,1001.37,VALID,0,VALID,96.5664,VALID,0,VALID,23.7248,VALID,344,VALID,1.08555,
2008-03-18, 02:06:05,VALID,1001.33,VALID,0,VALID,96.5969,VALID,0,VALID,23.7248,VALID,341,VALID,1.38164,
2008-03-18, 02:07:05,VALID,1001.34,VALID,0,VALID,96.5664,VALID,0,VALID,23.7248,VALID,340,VALID,0.976172,
2008-03-18, 02:08:05,VALID,1001.34,VALID,0,VALID,96.6121,VALID,0,VALID,23.7655,VALID,347,VALID,2.13594,
2008-03-18, 02:09:05,VALID,1001.36,VALID,0,VALID,96.6045,VALID,0,VALID,23.7637,VALID,352,VALID,1.91172,
2008-03-18, 02:10:05,VALID,1001.41,VALID,0,VALID,96.5893,VALID,0,VALID,23.7832,VALID,354,VALID,1.71992,
2008-03-18, 02:11:05,VALID,1001.48,VALID,0,VALID,96.5587,VALID,0,VALID,23.7637,VALID,347,VALID,1.39805,
2008-03-18, 02:12:05,VALID,1001.51,VALID,0,VALID,96.5435,VALID,0,VALID,23.8027,VALID,351,VALID,1.6332,
2008-03-18, 02:13:05,VALID,1001.52,VALID,0,VALID,96.5435,VALID,0,VALID,23.8027,VALID,339,VALID,1.28398,
2008-03-18, 02:14:05,VALID,1001.52,VALID,0,VALID,96.513,VALID,0,VALID,23.8221,VALID,341,VALID,0.875391,
2008-03-18, 02:15:05,VALID,1001.52,VALID,0,VALID,96.4977,VALID,0.100563,VALID,23.8221,VALID,352,VALID,1.28047,
2008-03-18, 02:16:05,VALID,1001.5,VALID,0,VALID,96.4825,VALID,0,VALID,23.8416,VALID,346,VALID,1.58828,
2008-03-18, 02:17:05,VALID,1001.48,VALID,0,VALID,96.4748,VALID,0.100563,VALID,23.8416,VALID,355,VALID,1.74766,
2008-03-18, 02:18:05,VALID,1001.43,VALID,0,VALID,96.4672,VALID,0.100563,VALID,23.8416,VALID,352,VALID,1.39531,
2008-03-18, 02:19:05,VALID,1001.4,VALID,0,VALID,96.4214,VALID,0.100563,VALID,23.8416,VALID,349,VALID,1.21484,
2008-03-18, 02:20:05,VALID,1001.32,VALID,0,VALID,96.3909,VALID,0,VALID,23.8416,VALID,355,VALID,1.40078,
2008-03-18, 02:21:05,VALID,1001.23,VALID,0,VALID,96.4138,VALID,0,VALID,23.8416,VALID,350,VALID,1.06914,
2008-03-18, 02:22:05,VALID,1001.2,VALID,0,VALID,96.3528,VALID,0.100563,VALID,23.8611,VALID,349,VALID,0.983594,
2008-03-18, 02:23:05,VALID,1001.14,VALID,0,VALID,96.3146,VALID,0,VALID,23.8611,VALID,352,VALID,1.10039,
2008-03-18, 02:24:05,VALID,1001.08,VALID,0,VALID,96.2917,VALID,0,VALID,23.8611,VALID,352,VALID,1.04648,
2008-03-18, 02:25:05,VALID,1001.04,VALID,0,VALID,96.3375,VALID,0,VALID,23.8805,VALID,357,VALID,0.723047,
2008-03-18, 02:26:05,VALID,1000.99,VALID,0,VALID,96.368,VALID,0,VALID,23.9018,VALID,349,VALID,0.832031,
2008-03-18, 02:27:05,VALID,1000.93,VALID,0,VALID,96.3451,VALID,0,VALID,23.8805,VALID,337,VALID,0.74375,
2008-03-18, 02:28:05,VALID,1000.92,VALID,0,VALID,96.3528,VALID,0,VALID,23.9,VALID,3,VALID,0.701953,
2008-03-18, 02:29:05,VALID,1000.9,VALID,0,VALID,96.3451,VALID,0,VALID,23.9,VALID,13,VALID,0.884375,
2008-03-18, 02:30:05,VALID,1000.91,VALID,0,VALID,96.3528,VALID,0,VALID,23.9,VALID,14,VALID,1.06602,
2008-03-18, 02:31:05,VALID,1000.9,VALID,0,VALID,96.3146,VALID,0,VALID,23.9,VALID,22,VALID,0.505469,
2008-03-18, 02:32:05,VALID,1000.87,VALID,0,VALID,96.2078,VALID,0,VALID,23.8805,VALID,47,VALID,0.753906,
2008-03-18, 02:33:05,VALID,1000.86,VALID,0,VALID,96.2154,VALID,0,VALID,23.9,VALID,34,VALID,0.373828,
2008-03-18, 02:34:05,VALID,1000.85,VALID,0,VALID,96.1849,VALID,0,VALID,23.8805,VALID,47,VALID,0.299609,
2008-03-18, 02:35:05,VALID,1000.86,VALID,0,VALID,96.1697,VALID,0,VALID,23.9018,VALID,47,VALID,0.534375,
2008-03-18, 02:36:05,VALID,1000.79,VALID,0,VALID,96.1773,VALID,0.100563,VALID,23.8805,VALID,48,VALID,0.0195313,
2008-03-18, 02:37:05,VALID,1000.79,VALID,0,VALID,96.2231,VALID,0,VALID,23.8611,VALID,58,VALID,0.267969,
2008-03-18, 02:38:05,VALID,1000.83,VALID,0,VALID,96.2231,VALID,0.100563,VALID,23.8416,VALID,112,VALID,0.864453,
2008-03-18, 02:39:05,VALID,1000.87,VALID,0,VALID,96.2536,VALID,0,VALID,23.8416,VALID,114,VALID,0.582031,
2008-03-18, 02:40:05,VALID,1000.88,VALID,0,VALID,96.3146,VALID,0.100563,VALID,23.8203,VALID,114,VALID,0.465625,
2008-03-18, 02:41:05,VALID,1000.9,VALID,0,VALID,96.3451,VALID,0.100563,VALID,23.8203,VALID,114,VALID,0.389062,
2008-03-18, 02:42:05,VALID,1000.88,VALID,0,VALID,96.3985,VALID,0,VALID,23.8416,VALID,114,VALID,0.0960938,
2008-03-18, 02:43:05,VALID,1000.89,VALID,0,VALID,96.3833,VALID,0.100563,VALID,23.8416,VALID,114,VALID,0.18125,
2008-03-18, 02:44:05,VALID,1000.86,VALID,0,VALID,96.4062,VALID,0.100563,VALID,23.8221,VALID,114,VALID,0.0570313,
2008-03-18, 02:45:05,VALID,1000.86,VALID,0,VALID,96.4138,VALID,0,VALID,23.8009,VALID,114,VALID,0.141016,
2008-03-18, 02:46:05,VALID,1000.84,VALID,0,VALID,96.4519,VALID,0.100563,VALID,23.8027,VALID,114,VALID,0,
2008-03-18, 02:47:05,VALID,1000.83,VALID,0,VALID,96.4519,VALID,0,VALID,23.7832,VALID,114,VALID,0,
2008-03-18, 02:48:05,VALID,1000.83,VALID,0,VALID,96.4672,VALID,0,VALID,23.7832,VALID,114,VALID,0,
2008-03-18, 02:49:05,VALID,1000.85,VALID,0,VALID,96.4672,VALID,0.100563,VALID,23.7832,VALID,114,VALID,0,
2008-03-18, 02:50:05,VALID,1000.86,VALID,0,VALID,96.4901,VALID,0.100563,VALID,23.7425,VALID,114,VALID,0,
2008-03-18, 02:51:05,VALID,1000.88,VALID,0,VALID,96.5206,VALID,0,VALID,23.7637,VALID,114,VALID,0,
2008-03-18, 02:52:05,VALID,1000.91,VALID,0,VALID,96.5282,VALID,0.100563,VALID,23.7425,VALID,114,VALID,0,
2008-03-18, 02:53:05,VALID,1000.93,VALID,0,VALID,96.574,VALID,0,VALID,23.7619,VALID,114,VALID,0,
2008-03-18, 02:54:05,VALID,1000.94,VALID,0,VALID,96.5893,VALID,0.100563,VALID,23.7832,VALID,114,VALID,0,
2008-03-18, 02:55:05,VALID,1000.97,VALID,0,VALID,96.6045,VALID,0,VALID,23.7832,VALID,114,VALID,0,
2008-03-18, 02:56:05,VALID,1001.01,VALID,0,VALID,96.6121,VALID,0,VALID,23.7832,VALID,114,VALID,0.183203,
2008-03-18, 02:57:05,VALID,1000.98,VALID,0,VALID,96.5969,VALID,0.100563,VALID,23.7637,VALID,114,VALID,0.0046875,
2008-03-18, 02:58:05,VALID,1001.02,VALID,0,VALID,96.5435,VALID,0,VALID,23.723,VALID,51,VALID,0.576563,
2008-03-18, 02:59:05,VALID,1001.03,VALID,0,VALID,96.5206,VALID,0.100563,VALID,23.6646,VALID,25,VALID,0.519141,
2008-03-18, 03:00:05,VALID,1001.05,VALID,0,VALID,96.5359,VALID,0.100563,VALID,23.6877,VALID,346,VALID,0.644141,
2008-03-18, 03:01:05,VALID,1001.08,VALID,0,VALID,96.574,VALID,0.100563,VALID,23.6257,VALID,346,VALID,0.498047,
2008-03-18, 03:02:05,VALID,1001.1,VALID,0,VALID,96.6045,VALID,0.100563,VALID,23.6275,VALID,345,VALID,0.286328,
2008-03-18, 03:03:05,VALID,1001.16,VALID,0,VALID,96.6579,VALID,0,VALID,23.6275,VALID,345,VALID,0.0121094,
2008-03-18, 03:04:05,VALID,1001.23,VALID,0,VALID,96.6732,VALID,0.100563,VALID,23.6469,VALID,345,VALID,0,
2008-03-18, 03:05:05,VALID,1001.25,VALID,0,VALID,96.7037,VALID,0,VALID,23.6452,VALID,345,VALID,0.244141,
2008-03-18, 03:06:05,VALID,1001.25,VALID,0,VALID,96.7495,VALID,0,VALID,23.6664,VALID,247,VALID,0.458203,
2008-03-18, 03:07:05,VALID,1001.26,VALID,0,VALID,96.7266,VALID,0,VALID,23.6646,VALID,247,VALID,0,
2008-03-18, 03:08:05,VALID,1001.3,VALID,0,VALID,96.7266,VALID,0.100563,VALID,23.6664,VALID,247,VALID,0,
2008-03-18, 03:09:05,VALID,1001.32,VALID,0,VALID,96.7418,VALID,0.100563,VALID,23.6859,VALID,247,VALID,0.00390625,
2008-03-18, 03:10:05,VALID,1001.37,VALID,0,VALID,96.7495,VALID,0,VALID,23.6859,VALID,247,VALID,0,
2008-03-18, 03:11:05,VALID,1001.43,VALID,0,VALID,96.7495,VALID,0,VALID,23.6859,VALID,247,VALID,0,
2008-03-18, 03:12:05,VALID,1001.52,VALID,0,VALID,96.7495,VALID,0.100563,VALID,23.6646,VALID,247,VALID,0,
2008-03-18, 03:13:05,VALID,1001.59,VALID,0,VALID,96.78,VALID,0,VALID,23.7053,VALID,183,VALID,0.366406,
2008-03-18, 03:14:05,VALID,1001.64,VALID,0,VALID,96.7876,VALID,0,VALID,23.7248,VALID,163,VALID,0.749219,
2008-03-18, 03:15:05,VALID,1001.66,VALID,0,VALID,96.7571,VALID,0.100563,VALID,23.7248,VALID,144,VALID,0.742969,
2008-03-18, 03:16:05,VALID,1001.67,VALID,0,VALID,96.7571,VALID,0,VALID,23.7053,VALID,144,VALID,0.851563,
2008-03-18, 03:17:05,VALID,1001.7,VALID,0,VALID,96.7495,VALID,0,VALID,23.6859,VALID,144,VALID,0.622656,
2008-03-18, 03:18:05,VALID,1001.74,VALID,0,VALID,96.78,VALID,0.100563,VALID,23.6859,VALID,144,VALID,0.518359,
2008-03-18, 03:19:05,VALID,1001.74,VALID,0,VALID,96.7952,VALID,0,VALID,23.7248,VALID,144,VALID,0.41875,
2008-03-18, 03:20:05,VALID,1001.74,VALID,0,VALID,96.7876,VALID,0.100563,VALID,23.6841,VALID,105,VALID,0.433984,
2008-03-18, 03:21:05,VALID,1001.7,VALID,0,VALID,96.7189,VALID,0.100563,VALID,23.6257,VALID,42,VALID,0.731641,
2008-03-18, 03:22:05,VALID,1001.68,VALID,0,VALID,96.7418,VALID,0.100563,VALID,23.6062,VALID,26,VALID,0.734375,
2008-03-18, 03:23:05,VALID,1001.66,VALID,0,VALID,96.7647,VALID,0.100563,VALID,23.6275,VALID,24,VALID,0.520312,
2008-03-18, 03:24:05,VALID,1001.61,VALID,0,VALID,96.7876,VALID,0.100563,VALID,23.6275,VALID,23,VALID,0.299609,
2008-03-18, 03:25:05,VALID,1001.6,VALID,0,VALID,96.8105,VALID,0.100563,VALID,23.6275,VALID,24,VALID,0,
2008-03-18, 03:26:04,VALID,1001.57,VALID,0,VALID,96.8181,VALID,0.100563,VALID,23.6062,VALID,24,VALID,0,
2008-03-18, 03:27:04,VALID,1001.55,VALID,0,VALID,96.8486,VALID,0.100563,VALID,23.6257,VALID,24,VALID,0,
2008-03-18, 03:28:04,VALID,1001.49,VALID,0,VALID,96.8334,VALID,0.100563,VALID,23.6257,VALID,24,VALID,0,
2008-03-18, 03:29:04,VALID,1001.49,VALID,0,VALID,96.8486,VALID,0.100563,VALID,23.6664,VALID,24,VALID,0,
2008-03-18, 03:30:04,VALID,1001.45,VALID,0,VALID,96.8715,VALID,0.100563,VALID,23.6859,VALID,24,VALID,0,
2008-03-18, 03:31:04,VALID,1001.44,VALID,0,VALID,96.8563,VALID,0,VALID,23.6859,VALID,24,VALID,0,
2008-03-18, 03:32:04,VALID,1001.44,VALID,0,VALID,96.841,VALID,0.100563,VALID,23.6646,VALID,24,VALID,0.346875,
2008-03-18, 03:33:04,VALID,1001.44,VALID,0,VALID,96.841,VALID,0.100563,VALID,23.6859,VALID,24,VALID,0.3375,
2008-03-18, 03:34:04,VALID,1001.43,VALID,0,VALID,96.8181,VALID,0.100563,VALID,23.6664,VALID,24,VALID,0.246094,
2008-03-18, 03:35:04,VALID,1001.41,VALID,0,VALID,96.8258,VALID,0.100563,VALID,23.6257,VALID,24,VALID,0.725,
2008-03-18, 03:36:04,VALID,1001.4,VALID,0,VALID,96.8639,VALID,0.100563,VALID,23.6664,VALID,24,VALID,0.700781,
2008-03-18, 03:37:04,VALID,1001.39,VALID,0,VALID,96.8639,VALID,0.100563,VALID,23.6859,VALID,24,VALID,0.631641,
2008-03-18, 03:38:04,VALID,1001.36,VALID,0,VALID,96.8639,VALID,0,VALID,23.6682,VALID,25,VALID,0.841406,
2008-03-18, 03:39:04,VALID,1001.36,VALID,0,VALID,96.8715,VALID,0,VALID,23.6877,VALID,30,VALID,0.564453,
2008-03-18, 03:40:04,VALID,1001.39,VALID,0,VALID,96.8868,VALID,0,VALID,23.6877,VALID,30,VALID,0.419922,
2008-03-18, 03:41:04,VALID,1001.39,VALID,0,VALID,96.902,VALID,0,VALID,23.7071,VALID,30,VALID,0.357031,
2008-03-18, 03:42:04,VALID,1001.42,VALID,0,VALID,96.902,VALID,0,VALID,23.7071,VALID,52,VALID,0.286328,
2008-03-18, 03:43:04,VALID,1001.46,VALID,0,VALID,96.8868,VALID,0,VALID,23.7248,VALID,84,VALID,0.526172,